Time,TemperatureF,DewpointF,PressureIn,WindDirection,WindDirectionDegrees,WindSpeedMPH,WindSpeedGustMPH,Humidity,HourlyPrecipIn,Conditions,Clouds,dailyrainin,SoftwareType,DateUTC
2013-05-04 00:03:00,57.9,40.4,30.05,ENE,67,0.0,0.0,52,0.00,,,0.00,WUHU21623XXSP,2013-05-04 07:03:00,
2013-05-04 00:08:00,57.9,40.9,30.05,ENE,67,0.0,0.0,53,0.00,,,0.00,WUHU21623XXSP,2013-05-04 07:08:00,
2013-05-04 00:13:00,57.7,40.7,30.04,ENE,67,0.0,0.0,53,0.00,,,0.00,WUHU21623XXSP,2013-05-04 07:13:00,
2013-05-04 00:18:00,57.7,40.7,30.04,ENE,67,0.0,0.0,53,0.00,,,0.00,WUHU21623XXSP,2013-05-04 07:18:00,
2013-05-04 00:23:00,57.6,41.0,30.05,ENE,67,0.0,0.0,54,0.00,,,0.00,WUHU21623XXSP,2013-05-04 07:23:00,
2013-05-04 00:28:00,57.6,41.0,30.04,NE,45,0.0,0.0,54,0.00,,,0.00,WUHU21623XXSP,2013-05-04 07:28:00,
2013-05-04 00:33:00,57.6,41.5,30.04,ENE,67,0.0,0.0,55,0.00,,,0.00,WUHU21623XXSP,2013-05-04 07:33:00,
2013-05-04 00:38:00,57.6,41.5,30.04,ESE,112,0.0,0.0,55,0.00,,,0.00,WUHU21623XXSP,2013-05-04 07:38:00,
2013-05-04 00:43:00,57.4,41.5,30.04,SE,135,0.0,0.0,55,0.00,,,0.00,WUHU21623XXSP,2013-05-04 07:43:00,
2013-05-04 00:48:00,57.4,41.3,30.04,ENE,67,0.0,0.0,55,0.00,,,0.00,WUHU21623XXSP,2013-05-04 07:48:00,
2013-05-04 00:53:00,57.6,41.5,30.03,NE,45,0.0,0.0,55,0.00,,,0.00,WUHU21623XXSP,2013-05-04 07:53:00,
2013-05-04 00:58:00,57.4,41.3,30.03,NNW,337,0.0,0.0,55,0.00,,,0.00,WUHU21623XXSP,2013-05-04 07:58:00,
2013-05-04 01:03:00,57.4,41.3,30.03,NNW,337,0.0,0.0,55,0.00,,,0.00,WUHU21623XXSP,2013-05-04 08:03:00,
2013-05-04 01:08:00,57.2,41.6,30.03,SE,135,0.0,0.0,56,0.00,,,0.00,WUHU21623XXSP,2013-05-04 08:08:00,
2013-05-04 01:13:00,57.0,41.5,30.04,SE,135,0.0,0.0,56,0.00,,,0.00,WUHU21623XXSP,2013-05-04 08:13:00,
2013-05-04 01:18:00,57.0,41.5,30.03,SE,135,0.0,0.0,56,0.00,,,0.00,WUHU21623XXSP,2013-05-04 08:18:00,
2013-05-04 01:23:00,56.8,41.3,30.03,SE,135,0.0,0.0,56,0.00,,,0.00,WUHU21623XXSP,2013-05-04 08:23:00,
2013-05-04 01:28:00,56.8,41.3,30.03,SSE,157,0.0,5.4,56,0.00,,,0.00,WUHU21623XXSP,2013-05-04 08:28:00,
2013-05-04 01:33:00,57.0,41.5,30.03,SSE,157,0.0,5.4,56,0.00,,,0.00,WUHU21623XXSP,2013-05-04 08:33:00,
2013-05-04 01:38:00,57.0,41.5,30.03,SSE,157,0.0,0.0,56,0.00,,,0.00,WUHU21623XXSP,2013-05-04 08:38:00,
2013-05-04 01:43:00,56.8,41.3,30.03,South,180,0.0,0.0,56,0.00,,,0.00,WUHU21623XXSP,2013-05-04 08:43:00,
2013-05-04 01:48:00,56.5,41.4,30.03,South,180,0.0,0.0,57,0.00,,,0.00,WUHU21623XXSP,2013-05-04 08:48:00,
2013-05-04 01:53:00,56.5,41.4,30.04,South,180,0.0,0.0,57,0.00,,,0.00,WUHU21623XXSP,2013-05-04 08:53:00,
2013-05-04 01:58:00,56.1,41.0,30.04,South,180,0.0,0.0,57,0.00,,,0.00,WUHU21623XXSP,2013-05-04 08:58:00,
2013-05-04 02:04:00,55.9,41.3,30.04,South,180,0.0,0.0,58,0.00,,,0.00,WUHU21623XXSP,2013-05-04 09:04:00,
2013-05-04 02:09:00,55.8,41.1,30.04,South,180,0.0,0.0,58,0.00,,,0.00,WUHU21623XXSP,2013-05-04 09:09:00,
2013-05-04 02:14:00,55.6,41.4,30.04,South,180,0.0,0.0,59,0.00,,,0.00,WUHU21623XXSP,2013-05-04 09:14:00,
2013-05-04 02:19:00,55.2,41.1,30.04,South,180,0.0,0.0,59,0.00,,,0.00,WUHU21623XXSP,2013-05-04 09:19:00,
2013-05-04 02:24:00,55.2,41.1,30.03,South,180,0.0,0.0,59,0.00,,,0.00,WUHU21623XXSP,2013-05-04 09:24:00,
2013-05-04 02:29:00,54.7,41.1,30.03,South,180,0.0,0.0,60,0.00,,,0.00,WUHU21623XXSP,2013-05-04 09:29:00,
2013-05-04 02:34:00,54.5,40.9,30.03,SE,135,0.0,0.0,60,0.00,,,0.00,WUHU21623XXSP,2013-05-04 09:34:00,
2013-05-04 02:39:00,54.3,40.7,30.03,SE,135,0.0,0.0,60,0.00,,,0.00,WUHU21623XXSP,2013-05-04 09:39:00,
2013-05-04 02:44:00,54.1,40.6,30.03,SE,135,0.0,0.0,60,0.00,,,0.00,WUHU21623XXSP,2013-05-04 09:44:00,
2013-05-04 02:49:00,54.1,40.6,30.03,SE,135,0.0,0.0,60,0.00,,,0.00,WUHU21623XXSP,2013-05-04 09:49:00,
2013-05-04 02:54:00,54.0,40.8,30.03,SE,135,0.0,0.0,61,0.00,,,0.00,WUHU21623XXSP,2013-05-04 09:54:00,
2013-05-04 02:59:00,53.8,40.7,30.03,SE,135,0.0,0.0,61,0.00,,,0.00,WUHU21623XXSP,2013-05-04 09:59:00,
2013-05-04 03:04:00,53.8,40.7,30.03,ENE,67,0.0,0.0,61,0.00,,,0.00,WUHU21623XXSP,2013-05-04 10:04:00,
2013-05-04 03:09:00,53.4,40.3,30.03,NE,45,0.0,0.0,61,0.00,,,0.00,WUHU21623XXSP,2013-05-04 10:09:00,
2013-05-04 03:14:00,53.4,40.7,30.03,NE,45,0.0,0.0,62,0.00,,,0.00,WUHU21623XXSP,2013-05-04 10:14:00,
2013-05-04 03:19:00,53.2,40.5,30.03,NE,45,0.0,0.0,62,0.00,,,0.00,WUHU21623XXSP,2013-05-04 10:19:00,
2013-05-04 03:24:00,53.2,40.5,30.03,NE,45,0.0,0.0,62,0.00,,,0.00,WUHU21623XXSP,2013-05-04 10:24:00,
2013-05-04 03:29:00,52.9,40.2,30.03,NE,45,0.0,0.0,62,0.00,,,0.00,WUHU21623XXSP,2013-05-04 10:29:00,
2013-05-04 03:34:00,52.9,40.6,30.03,NE,45,0.0,0.0,63,0.00,,,0.00,WUHU21623XXSP,2013-05-04 10:34:00,
2013-05-04 03:39:00,52.9,40.6,30.03,NE,45,0.0,0.0,63,0.00,,,0.00,WUHU21623XXSP,2013-05-04 10:39:00,
2013-05-04 03:44:00,52.5,40.2,30.03,NE,45,0.0,0.0,63,0.00,,,0.00,WUHU21623XXSP,2013-05-04 10:44:00,
2013-05-04 03:49:00,52.5,40.2,30.03,NE,45,0.0,0.0,63,0.00,,,0.00,WUHU21623XXSP,2013-05-04 10:49:00,
2013-05-04 03:54:00,52.3,40.1,30.03,NE,45,0.0,0.0,63,0.00,,,0.00,WUHU21623XXSP,2013-05-04 10:54:00,
2013-05-04 03:59:00,52.3,40.1,30.03,NE,45,0.0,0.0,63,0.00,,,0.00,WUHU21623XXSP,2013-05-04 10:59:00,
2013-05-04 04:04:00,52.2,40.1,30.03,NE,45,0.0,0.0,63,0.00,,,0.00,WUHU21623XXSP,2013-05-04 11:04:00,
2013-05-04 04:09:00,52.2,39.9,30.03,NE,45,0.0,0.0,63,0.00,,,0.00,WUHU21623XXSP,2013-05-04 11:09:00,
2013-05-04 04:14:00,52.0,39.7,30.03,NE,45,0.0,0.0,63,0.00,,,0.00,WUHU21623XXSP,2013-05-04 11:14:00,
2013-05-04 04:19:00,51.8,39.5,30.03,NE,45,0.0,0.0,63,0.00,,,0.00,WUHU21623XXSP,2013-05-04 11:19:00,
2013-05-04 04:24:00,51.6,39.4,30.03,NE,45,0.0,0.0,63,0.00,,,0.00,WUHU21623XXSP,2013-05-04 11:24:00,
2013-05-04 04:29:00,51.4,39.2,30.03,NE,45,0.0,0.0,63,0.00,,,0.00,WUHU21623XXSP,2013-05-04 11:29:00,
2013-05-04 04:34:00,51.4,39.6,30.03,NE,45,0.0,0.0,64,0.00,,,0.00,WUHU21623XXSP,2013-05-04 11:34:00,
2013-05-04 04:39:00,51.3,39.4,30.03,NE,45,0.0,0.0,64,0.00,,,0.00,WUHU21623XXSP,2013-05-04 11:39:00,
2013-05-04 04:44:00,51.1,39.3,30.03,NE,45,0.0,0.0,64,0.00,,,0.00,WUHU21623XXSP,2013-05-04 11:44:00,
2013-05-04 04:49:00,50.9,39.1,30.03,NE,45,0.0,0.0,64,0.00,,,0.00,WUHU21623XXSP,2013-05-04 11:49:00,
2013-05-04 04:54:00,50.9,39.1,30.03,NE,45,0.0,0.0,64,0.00,,,0.00,WUHU21623XXSP,2013-05-04 11:54:00,
2013-05-04 04:59:00,50.7,38.9,30.03,NE,45,0.0,0.0,64,0.00,,,0.00,WUHU21623XXSP,2013-05-04 11:59:00,
2013-05-04 05:04:00,50.7,38.9,30.03,NE,45,0.0,0.0,64,0.00,,,0.00,WUHU21623XXSP,2013-05-04 12:04:00,
2013-05-04 05:09:00,50.7,38.9,30.03,NE,45,0.0,0.0,64,0.00,,,0.00,WUHU21623XXSP,2013-05-04 12:09:00,
2013-05-04 05:15:00,50.5,38.8,30.03,NE,45,0.0,0.0,64,0.00,,,0.00,WUHU21623XXSP,2013-05-04 12:15:00,
2013-05-04 05:20:00,50.4,38.6,30.03,NE,45,0.0,0.0,64,0.00,,,0.00,WUHU21623XXSP,2013-05-04 12:20:00,
2013-05-04 05:25:00,50.2,38.4,30.03,NE,45,0.0,0.0,64,0.00,,,0.00,WUHU21623XXSP,2013-05-04 12:25:00,
2013-05-04 05:30:00,50.2,38.8,30.03,NE,45,0.0,0.0,65,0.00,,,0.00,WUHU21623XXSP,2013-05-04 12:30:00,
2013-05-04 05:35:00,50.0,38.8,30.03,NE,45,0.0,0.0,65,0.00,,,0.00,WUHU21623XXSP,2013-05-04 12:35:00,
2013-05-04 05:40:00,49.8,38.5,30.03,NE,45,0.0,0.0,65,0.00,,,0.00,WUHU21623XXSP,2013-05-04 12:40:00,
2013-05-04 05:45:00,49.8,38.5,30.03,NE,45,0.0,0.0,65,0.00,,,0.00,WUHU21623XXSP,2013-05-04 12:45:00,
2013-05-04 05:50:00,49.8,38.5,30.03,NE,45,0.0,0.0,65,0.00,,,0.00,WUHU21623XXSP,2013-05-04 12:50:00,
2013-05-04 05:55:00,49.6,38.3,30.03,NE,45,0.0,0.0,65,0.00,,,0.00,WUHU21623XXSP,2013-05-04 12:55:00,
2013-05-04 06:00:00,49.6,37.9,30.03,NE,45,0.0,0.0,65,0.00,,,0.00,WUHU21623XXSP,2013-05-04 13:00:00,
2013-05-04 06:05:00,49.3,37.6,30.03,NE,45,0.0,0.0,64,0.00,,,0.00,WUHU21623XXSP,2013-05-04 13:05:00,
2013-05-04 06:10:00,49.3,37.6,30.03,NE,45,0.0,0.0,64,0.00,,,0.00,WUHU21623XXSP,2013-05-04 13:10:00,
2013-05-04 06:15:00,49.3,37.6,30.03,NE,45,0.0,0.0,64,0.00,,,0.00,WUHU21623XXSP,2013-05-04 13:15:00,
2013-05-04 06:20:00,49.3,37.6,30.03,NE,45,0.0,0.0,64,0.00,,,0.00,WUHU21623XXSP,2013-05-04 13:20:00,
2013-05-04 06:25:00,49.3,37.6,30.03,NE,45,0.0,0.0,64,0.00,,,0.00,WUHU21623XXSP,2013-05-04 13:25:00,
2013-05-04 06:30:00,49.1,37.6,30.03,NE,45,0.0,0.0,64,0.00,,,0.00,WUHU21623XXSP,2013-05-04 13:30:00,
2013-05-04 06:35:00,49.3,37.6,30.03,NE,45,0.0,0.0,64,0.00,,,0.00,WUHU21623XXSP,2013-05-04 13:35:00,
2013-05-04 06:40:00,49.3,37.6,30.03,NE,45,0.0,0.0,64,0.00,,,0.00,WUHU21623XXSP,2013-05-04 13:40:00,
2013-05-04 06:45:00,49.3,37.2,30.03,NE,45,0.0,0.0,63,0.00,,,0.00,WUHU21623XXSP,2013-05-04 13:45:00,
2013-05-04 06:50:00,49.3,37.2,30.03,NE,45,0.0,0.0,63,0.00,,,0.00,WUHU21623XXSP,2013-05-04 13:50:00,
2013-05-04 06:55:00,49.6,37.2,30.03,NE,45,0.0,0.0,63,0.00,,,0.00,WUHU21623XXSP,2013-05-04 13:55:00,
2013-05-04 07:00:00,49.6,37.4,30.03,NE,45,0.0,0.0,63,0.00,,,0.00,WUHU21623XXSP,2013-05-04 14:00:00,
2013-05-04 07:05:00,49.6,37.5,30.04,NE,45,0.0,0.0,63,0.00,,,0.00,WUHU21623XXSP,2013-05-04 14:05:00,
2013-05-04 07:10:00,49.6,37.1,30.03,NE,45,0.0,0.0,62,0.00,,,0.00,WUHU21623XXSP,2013-05-04 14:10:00,
2013-05-04 07:15:00,49.8,37.3,30.03,NE,45,0.0,0.0,62,0.00,,,0.00,WUHU21623XXSP,2013-05-04 14:15:00,
2013-05-04 07:20:00,49.8,37.3,30.03,NE,45,0.0,0.0,62,0.00,,,0.00,WUHU21623XXSP,2013-05-04 14:20:00,
2013-05-04 07:25:00,49.8,37.3,30.04,NE,45,0.0,0.0,62,0.00,,,0.00,WUHU21623XXSP,2013-05-04 14:25:00,
2013-05-04 07:30:00,50.0,37.5,30.04,NE,45,0.0,0.0,62,0.00,,,0.00,WUHU21623XXSP,2013-05-04 14:30:00,
2013-05-04 07:35:00,50.2,37.6,30.04,NE,45,0.0,0.0,62,0.00,,,0.00,WUHU21623XXSP,2013-05-04 14:35:00,
2013-05-04 07:40:00,50.2,37.6,30.04,NE,45,0.0,0.0,62,0.00,,,0.00,WUHU21623XXSP,2013-05-04 14:40:00,
2013-05-04 07:45:00,50.4,37.8,30.03,NE,45,0.0,0.0,62,0.00,,,0.00,WUHU21623XXSP,2013-05-04 14:45:00,
2013-05-04 07:50:00,50.5,38.0,30.04,SSE,157,0.0,0.0,62,0.00,,,0.00,WUHU21623XXSP,2013-05-04 14:50:00,
2013-05-04 07:55:00,50.7,38.0,30.04,SSE,157,0.0,0.0,62,0.00,,,0.00,WUHU21623XXSP,2013-05-04 14:55:00,
2013-05-04 08:00:00,50.9,38.3,30.04,SSE,157,0.0,0.0,62,0.00,,,0.00,WUHU21623XXSP,2013-05-04 15:00:00,
2013-05-04 08:05:00,51.1,38.5,30.04,SSE,157,0.0,0.0,62,0.00,,,0.00,WUHU21623XXSP,2013-05-04 15:05:00,
2013-05-04 08:10:00,51.4,38.8,30.04,SSE,157,0.0,0.0,62,0.00,,,0.00,WUHU21623XXSP,2013-05-04 15:10:00,
2013-05-04 08:15:00,51.6,38.9,30.04,SSE,157,0.0,0.0,62,0.00,,,0.00,WUHU21623XXSP,2013-05-04 15:15:00,
2013-05-04 08:20:00,52.0,38.9,30.04,SSE,157,0.0,0.0,61,0.00,,,0.00,WUHU21623XXSP,2013-05-04 15:20:00,
2013-05-04 08:25:00,52.7,39.2,30.03,SSE,157,0.0,0.0,61,0.00,,,0.00,WUHU21623XXSP,2013-05-04 15:25:00,
2013-05-04 08:30:00,53.8,40.3,30.03,SSE,157,0.0,0.0,60,0.00,,,0.00,WUHU21623XXSP,2013-05-04 15:30:00,
2013-05-04 08:35:00,54.3,40.6,30.03,SSE,157,0.0,0.0,61,0.00,,,0.00,WUHU21623XXSP,2013-05-04 15:35:00,
2013-05-04 08:40:00,54.7,41.3,30.03,SSE,157,0.0,0.0,61,0.00,,,0.00,WUHU21623XXSP,2013-05-04 15:40:00,
2013-05-04 08:45:00,54.9,41.6,30.03,NNE,22,0.0,0.0,61,0.00,,,0.00,WUHU21623XXSP,2013-05-04 15:45:00,
2013-05-04 08:50:00,55.0,41.8,30.03,NE,45,0.0,0.0,61,0.00,,,0.00,WUHU21623XXSP,2013-05-04 15:50:00,
2013-05-04 08:55:00,55.6,42.0,30.03,NE,45,0.0,0.0,61,0.00,,,0.00,WUHU21623XXSP,2013-05-04 15:55:00,
2013-05-04 09:00:00,57.0,44.1,30.03,ENE,67,0.0,0.0,62,0.00,,,0.00,WUHU21623XXSP,2013-05-04 16:00:00,
2013-05-04 09:05:00,57.9,45.0,30.03,ENE,67,0.0,0.0,62,0.00,,,0.00,WUHU21623XXSP,2013-05-04 16:05:00,
2013-05-04 09:10:00,59.9,46.9,30.03,SE,135,0.0,0.0,62,0.00,,,0.00,WUHU21623XXSP,2013-05-04 16:10:00,
2013-05-04 09:15:00,60.6,47.2,30.03,SW,225,0.0,0.7,61,0.00,,,0.00,WUHU21623XXSP,2013-05-04 16:15:00,
2013-05-04 09:20:00,61.2,47.5,30.03,SW,225,0.0,0.7,61,0.00,,,0.00,WUHU21623XXSP,2013-05-04 16:20:00,
2013-05-04 09:25:00,61.9,48.4,30.03,SW,225,0.0,0.0,61,0.00,,,0.00,WUHU21623XXSP,2013-05-04 16:25:00,
2013-05-04 09:30:00,63.0,49.3,30.03,South,180,0.0,0.7,61,0.00,,,0.00,WUHU21623XXSP,2013-05-04 16:30:00,
2013-05-04 09:35:00,63.9,49.5,30.03,South,180,3.6,3.6,60,0.00,,,0.00,WUHU21623XXSP,2013-05-04 16:35:00,
2013-05-04 09:40:00,65.8,51.6,30.02,South,180,0.0,3.6,60,0.00,,,0.00,WUHU21623XXSP,2013-05-04 16:40:00,
2013-05-04 09:45:00,68.7,52.3,30.02,West,270,0.0,3.6,58,0.00,,,0.00,WUHU21623XXSP,2013-05-04 16:45:00,
2013-05-04 09:50:00,72.0,54.8,30.02,South,180,1.6,1.6,55,0.00,,,0.00,WUHU21623XXSP,2013-05-04 16:50:00,
2013-05-04 09:55:00,76.8,56.9,30.02,South,180,0.0,2.5,50,0.00,,,0.00,WUHU21623XXSP,2013-05-04 16:55:00,
2013-05-04 10:00:00,79.3,56.7,30.01,South,180,0.0,2.5,46,0.00,,,0.00,WUHU21623XXSP,2013-05-04 17:00:00,
2013-05-04 10:05:00,81.1,57.1,30.02,SSW,202,1.1,1.1,44,0.00,,,0.00,WUHU21623XXSP,2013-05-04 17:05:00,
2013-05-04 10:10:00,82.2,55.6,30.01,North,0,0.0,1.1,40,0.00,,,0.00,WUHU21623XXSP,2013-05-04 17:10:00,
2013-05-04 10:15:00,82.6,55.9,30.01,SSW,202,0.0,0.0,40,0.00,,,0.00,WUHU21623XXSP,2013-05-04 17:15:00,
2013-05-04 10:20:00,82.9,55.5,30.01,South,180,0.0,0.0,39,0.00,,,0.00,WUHU21623XXSP,2013-05-04 17:20:00,
2013-05-04 10:25:00,82.8,55.3,30.01,South,180,4.7,4.7,39,0.00,,,0.00,WUHU21623XXSP,2013-05-04 17:25:00,
2013-05-04 10:30:00,82.2,54.8,30.01,SW,225,0.0,4.7,39,0.00,,,0.00,WUHU21623XXSP,2013-05-04 17:30:00,
2013-05-04 10:35:00,81.3,54.0,30.01,NW,315,0.0,0.0,39,0.00,,,0.00,WUHU21623XXSP,2013-05-04 17:35:00,
2013-05-04 10:40:00,79.5,52.4,30.01,West,270,0.0,5.4,39,0.00,,,0.00,WUHU21623XXSP,2013-05-04 17:40:00,
2013-05-04 10:45:00,78.6,52.4,30.00,SSW,202,0.0,5.4,40,0.00,,,0.00,WUHU21623XXSP,2013-05-04 17:45:00,
2013-05-04 10:50:00,77.7,52.2,30.00,SSW,202,0.0,0.0,41,0.00,,,0.00,WUHU21623XXSP,2013-05-04 17:50:00,
2013-05-04 10:55:00,76.8,52.0,30.01,ESE,112,0.0,0.0,42,0.00,,,0.00,WUHU21623XXSP,2013-05-04 17:55:00,
2013-05-04 11:00:00,76.6,51.8,30.00,East,90,0.0,0.0,42,0.00,,,0.00,WUHU21623XXSP,2013-05-04 18:00:00,
2013-05-04 11:05:00,76.6,52.4,30.00,ESE,112,0.0,1.1,43,0.00,,,0.00,WUHU21623XXSP,2013-05-04 18:05:00,
2013-05-04 11:10:00,76.8,52.6,30.00,South,180,6.5,6.5,43,0.00,,,0.00,WUHU21623XXSP,2013-05-04 18:10:00,
2013-05-04 11:15:00,76.6,51.8,30.00,WNW,292,0.0,6.5,42,0.00,,,0.00,WUHU21623XXSP,2013-05-04 18:15:00,
2013-05-04 11:20:00,76.6,52.4,29.99,ENE,67,0.0,3.4,43,0.00,,,0.00,WUHU21623XXSP,2013-05-04 18:20:00,
2013-05-04 11:25:00,76.8,52.6,29.99,ENE,67,0.0,0.0,43,0.00,,,0.00,WUHU21623XXSP,2013-05-04 18:25:00,
2013-05-04 11:30:00,77.4,52.4,29.99,West,270,0.0,1.1,42,0.00,,,0.00,WUHU21623XXSP,2013-05-04 18:30:00,
2013-05-04 11:35:00,77.7,52.2,29.99,SW,225,0.0,1.1,41,0.00,,,0.00,WUHU21623XXSP,2013-05-04 18:35:00,
2013-05-04 11:40:00,77.9,51.7,29.98,ENE,67,0.0,0.0,40,0.00,,,0.00,WUHU21623XXSP,2013-05-04 18:40:00,
2013-05-04 11:45:00,77.9,51.7,29.98,SE,135,0.0,0.0,40,0.00,,,0.00,WUHU21623XXSP,2013-05-04 18:45:00,
2013-05-04 11:50:00,78.6,52.4,29.98,ESE,112,0.0,0.0,40,0.00,,,0.00,WUHU21623XXSP,2013-05-04 18:50:00,
2013-05-04 11:55:00,79.0,51.9,29.98,ENE,67,0.0,3.4,39,0.00,,,0.00,WUHU21623XXSP,2013-05-04 18:55:00,
2013-05-04 12:00:00,79.2,52.1,29.97,NE,45,0.0,3.4,39,0.00,,,0.00,WUHU21623XXSP,2013-05-04 19:00:00,
2013-05-04 12:05:00,79.3,52.2,29.97,SSW,202,0.0,3.1,39,0.00,,,0.00,WUHU21623XXSP,2013-05-04 19:05:00,
2013-05-04 12:10:00,79.7,52.6,29.97,ENE,67,0.0,3.1,39,0.00,,,0.00,WUHU21623XXSP,2013-05-04 19:10:00,
2013-05-04 12:15:00,80.1,52.1,29.96,SE,135,0.0,3.1,38,0.00,,,0.00,WUHU21623XXSP,2013-05-04 19:15:00,
2013-05-04 12:20:00,80.6,52.6,29.96,West,270,0.0,0.0,38,0.00,,,0.00,WUHU21623XXSP,2013-05-04 19:20:00,
2013-05-04 12:25:00,81.1,52.3,29.96,WSW,247,0.0,0.0,37,0.00,,,0.00,WUHU21623XXSP,2013-05-04 19:25:00,
2013-05-04 12:30:00,82.0,52.3,29.95,ENE,67,0.0,0.9,36,0.00,,,0.00,WUHU21623XXSP,2013-05-04 19:30:00,
2013-05-04 12:35:00,82.2,52.4,29.95,ESE,112,0.0,0.9,36,0.00,,,0.00,WUHU21623XXSP,2013-05-04 19:35:00,
2013-05-04 12:40:00,82.4,52.6,29.95,SE,135,0.0,0.0,36,0.00,,,0.00,WUHU21623XXSP,2013-05-04 19:40:00,
2013-05-04 12:45:00,83.1,52.4,29.94,NW,315,0.0,0.0,35,0.00,,,0.00,WUHU21623XXSP,2013-05-04 19:45:00,
2013-05-04 12:50:00,83.3,52.6,29.95,ESE,112,0.0,0.0,35,0.00,,,0.00,WUHU21623XXSP,2013-05-04 19:50:00,
2013-05-04 12:55:00,83.3,52.4,29.95,NE,45,0.0,0.0,34,0.00,,,0.00,WUHU21623XXSP,2013-05-04 19:55:00,
2013-05-04 13:00:00,83.7,52.1,29.94,South,180,0.0,0.0,34,0.00,,,0.00,WUHU21623XXSP,2013-05-04 20:00:00,
2013-05-04 13:05:00,84.0,52.5,29.93,NE,45,0.0,0.0,34,0.00,,,0.00,WUHU21623XXSP,2013-05-04 20:05:00,
2013-05-04 13:10:00,84.2,51.8,29.93,NE,45,0.0,0.0,33,0.00,,,0.00,WUHU21623XXSP,2013-05-04 20:10:00,
2013-05-04 13:15:00,84.0,52.5,29.93,WSW,247,5.8,5.8,34,0.00,,,0.00,WUHU21623XXSP,2013-05-04 20:15:00,
2013-05-04 13:20:00,84.4,52.8,29.92,SSW,202,0.0,5.8,34,0.00,,,0.00,WUHU21623XXSP,2013-05-04 20:20:00,
2013-05-04 13:25:00,84.9,53.3,29.92,ESE,112,0.0,0.0,34,0.00,,,0.00,WUHU21623XXSP,2013-05-04 20:25:00,
2013-05-04 13:30:00,85.6,53.1,29.91,SE,135,0.0,0.0,33,0.00,,,0.00,WUHU21623XXSP,2013-05-04 20:30:00,
2013-05-04 13:35:00,85.6,53.1,29.91,South,180,0.0,0.0,33,0.00,,,0.00,WUHU21623XXSP,2013-05-04 20:35:00,
2013-05-04 13:41:00,86.2,53.6,29.90,SW,225,0.0,2.7,33,0.00,,,0.00,WUHU21623XXSP,2013-05-04 20:41:00,
2013-05-04 13:46:00,86.4,54.5,29.90,WSW,247,3.4,3.4,34,0.00,,,0.00,WUHU21623XXSP,2013-05-04 20:46:00,
2013-05-04 13:51:00,86.5,53.9,29.90,WSW,247,1.8,3.4,33,0.00,,,0.00,WUHU21623XXSP,2013-05-04 20:51:00,
2013-05-04 13:56:00,86.5,53.9,29.90,SW,225,0.0,7.4,33,0.00,,,0.00,WUHU21623XXSP,2013-05-04 20:56:00,
2013-05-04 14:01:00,86.7,54.8,29.90,NE,45,0.4,7.4,34,0.00,,,0.00,WUHU21623XXSP,2013-05-04 21:01:00,
2013-05-04 14:06:00,86.9,53.4,29.90,WSW,247,1.6,1.6,32,0.00,,,0.00,WUHU21623XXSP,2013-05-04 21:06:00,
2013-05-04 14:11:00,86.9,53.4,29.90,East,90,1.6,1.6,32,0.00,,,0.00,WUHU21623XXSP,2013-05-04 21:11:00,
2013-05-04 14:16:00,86.9,53.4,29.88,ESE,112,0.0,1.6,32,0.00,,,0.00,WUHU21623XXSP,2013-05-04 21:16:00,
2013-05-04 14:21:00,87.1,53.5,29.89,ENE,67,0.0,1.6,32,0.00,,,0.00,WUHU21623XXSP,2013-05-04 21:21:00,
2013-05-04 14:26:00,87.4,53.0,29.89,WSW,247,3.8,3.8,31,0.00,,,0.00,WUHU21623XXSP,2013-05-04 21:26:00,
2013-05-04 14:31:00,87.6,54.0,29.88,SSW,202,0.0,3.8,32,0.00,,,0.00,WUHU21623XXSP,2013-05-04 21:31:00,
2013-05-04 14:36:00,87.6,53.2,29.88,SSW,202,0.0,3.4,31,0.00,,,0.00,WUHU21623XXSP,2013-05-04 21:36:00,
2013-05-04 14:41:00,87.6,53.2,29.88,WSW,247,3.8,3.8,31,0.00,,,0.00,WUHU21623XXSP,2013-05-04 21:41:00,
2013-05-04 14:46:00,87.4,53.0,29.88,SE,135,1.1,3.8,31,0.00,,,0.00,WUHU21623XXSP,2013-05-04 21:46:00,
2013-05-04 14:51:00,87.1,51.9,29.88,ENE,67,0.0,1.1,30,0.00,,,0.00,WUHU21623XXSP,2013-05-04 21:51:00,
2013-05-04 14:56:00,87.3,52.1,29.87,East,90,0.0,1.6,30,0.00,,,0.00,WUHU21623XXSP,2013-05-04 21:56:00,
2013-05-04 15:01:00,87.1,51.9,29.88,East,90,1.1,1.6,30,0.00,,,0.00,WUHU21623XXSP,2013-05-04 22:01:00,
2013-05-04 15:06:00,87.1,51.9,29.87,West,270,0.0,1.1,30,0.00,,,0.00,WUHU21623XXSP,2013-05-04 22:06:00,
2013-05-04 15:11:00,87.1,51.9,29.87,ESE,112,0.0,6.9,30,0.00,,,0.00,WUHU21623XXSP,2013-05-04 22:11:00,
2013-05-04 15:16:00,87.1,50.9,29.86,NE,45,0.0,6.9,29,0.00,,,0.00,WUHU21623XXSP,2013-05-04 22:16:00,
2013-05-04 15:21:00,87.1,51.9,29.86,NW,315,0.0,2.0,30,0.00,,,0.00,WUHU21623XXSP,2013-05-04 22:21:00,
2013-05-04 15:26:00,87.4,51.2,29.86,WSW,247,0.0,2.9,29,0.00,,,0.00,WUHU21623XXSP,2013-05-04 22:26:00,
2013-05-04 15:31:00,87.6,51.3,29.85,WSW,247,0.0,2.9,29,0.00,,,0.00,WUHU21623XXSP,2013-05-04 22:31:00,
2013-05-04 15:36:00,87.4,50.1,29.85,West,270,0.0,0.0,28,0.00,,,0.00,WUHU21623XXSP,2013-05-04 22:36:00,
2013-05-04 15:41:00,87.4,51.2,29.85,NW,315,0.0,0.0,29,0.00,,,0.00,WUHU21623XXSP,2013-05-04 22:41:00,
2013-05-04 15:47:00,87.4,51.2,29.85,South,180,0.0,0.0,29,0.00,,,0.00,WUHU21623XXSP,2013-05-04 22:47:00,
2013-05-04 15:52:00,87.3,49.9,29.84,ENE,67,0.7,0.7,28,0.00,,,0.00,WUHU21623XXSP,2013-05-04 22:52:00,
2013-05-04 15:57:00,87.1,49.8,29.84,NE,45,0.7,5.8,28,0.00,,,0.00,WUHU21623XXSP,2013-05-04 22:57:00,
2013-05-04 16:02:00,86.7,50.6,29.84,West,270,0.0,5.8,29,0.00,,,0.00,WUHU21623XXSP,2013-05-04 23:02:00,
2013-05-04 16:07:00,86.7,50.6,29.83,WNW,292,0.0,0.4,29,0.00,,,0.00,WUHU21623XXSP,2013-05-04 23:07:00,
2013-05-04 16:12:00,86.7,50.6,29.84,ESE,112,0.0,0.4,29,0.00,,,0.00,WUHU21623XXSP,2013-05-04 23:12:00,
2013-05-04 16:17:00,86.7,49.5,29.84,NE,45,2.9,2.9,28,0.00,,,0.00,WUHU21623XXSP,2013-05-04 23:17:00,
2013-05-04 16:22:00,86.4,50.3,29.83,West,270,0.0,2.9,29,0.00,,,0.00,WUHU21623XXSP,2013-05-04 23:22:00,
2013-05-04 16:27:00,86.2,50.1,29.83,SSE,157,5.1,5.1,29,0.00,,,0.00,WUHU21623XXSP,2013-05-04 23:27:00,
2013-05-04 16:32:00,86.2,50.1,29.83,WSW,247,0.0,5.1,29,0.00,,,0.00,WUHU21623XXSP,2013-05-04 23:32:00,
2013-05-04 16:37:00,86.4,50.3,29.82,SSE,157,0.0,0.0,29,0.00,,,0.00,WUHU21623XXSP,2013-05-04 23:37:00,
2013-05-04 16:43:00,86.5,50.4,29.82,NNE,22,0.0,0.9,29,0.00,,,0.00,WUHU21623XXSP,2013-05-04 23:43:00,
2013-05-04 16:48:00,86.2,50.1,29.82,West,270,0.0,3.6,29,0.00,,,0.00,WUHU21623XXSP,2013-05-04 23:48:00,
2013-05-04 16:53:00,86.2,50.1,29.82,WSW,247,0.0,3.6,29,0.00,,,0.00,WUHU21623XXSP,2013-05-04 23:53:00,
2013-05-04 16:58:00,86.0,50.0,29.82,SE,135,0.0,0.0,29,0.00,,,0.00,WUHU21623XXSP,2013-05-04 23:58:00,
2013-05-04 17:04:00,85.6,49.7,29.82,South,180,0.0,0.0,29,0.00,,,0.00,WUHU21623XXSP,2013-05-05 00:04:00,
2013-05-04 17:09:00,85.6,49.7,29.82,NE,45,1.6,1.6,29,0.00,,,0.00,WUHU21623XXSP,2013-05-05 00:09:00,
2013-05-04 17:14:00,85.5,50.6,29.82,NE,45,0.7,1.6,30,0.00,,,0.00,WUHU21623XXSP,2013-05-05 00:14:00,
2013-05-04 17:19:00,85.3,49.4,29.82,NW,315,0.0,5.4,29,0.00,,,0.00,WUHU21623XXSP,2013-05-05 00:19:00,
2013-05-04 17:24:00,85.1,50.3,29.81,WNW,292,0.0,5.4,30,0.00,,,0.00,WUHU21623XXSP,2013-05-05 00:24:00,
2013-05-04 17:29:00,84.7,48.9,29.81,SE,135,1.8,4.0,29,0.00,,,0.00,WUHU21623XXSP,2013-05-05 00:29:00,
2013-05-04 17:34:00,84.7,48.9,29.81,South,180,0.0,1.8,29,0.00,,,0.00,WUHU21623XXSP,2013-05-05 00:34:00,
2013-05-04 17:39:00,84.6,49.8,29.81,ENE,67,1.8,1.8,30,0.00,,,0.00,WUHU21623XXSP,2013-05-05 00:39:00,
2013-05-04 17:44:00,84.4,48.5,29.81,NNE,22,0.0,1.8,29,0.00,,,0.00,WUHU21623XXSP,2013-05-05 00:44:00,
2013-05-04 17:49:00,84.0,49.3,29.81,SE,135,0.0,0.0,30,0.00,,,0.00,WUHU21623XXSP,2013-05-05 00:49:00,
2013-05-04 17:54:00,84.0,49.3,29.80,ENE,67,0.0,0.0,30,0.00,,,0.00,WUHU21623XXSP,2013-05-05 00:54:00,
2013-05-04 17:59:00,83.7,49.0,29.81,West,270,0.0,0.0,30,0.00,,,0.00,WUHU21623XXSP,2013-05-05 00:59:00,
2013-05-04 18:04:00,83.5,48.8,29.81,SE,135,7.6,7.6,30,0.00,,,0.00,WUHU21623XXSP,2013-05-05 01:04:00,
2013-05-04 18:09:00,82.9,47.3,29.81,SE,135,0.0,7.6,29,0.00,,,0.00,WUHU21623XXSP,2013-05-05 01:09:00,
2013-05-04 18:15:00,82.8,48.2,29.80,ENE,67,0.0,6.9,30,0.00,,,0.00,WUHU21623XXSP,2013-05-05 01:15:00,
2013-05-04 18:20:00,82.2,47.7,29.81,SW,225,0.0,5.4,30,0.00,,,0.00,WUHU21623XXSP,2013-05-05 01:20:00,
2013-05-04 18:25:00,81.9,48.2,29.80,SE,135,0.0,5.4,31,0.00,,,0.00,WUHU21623XXSP,2013-05-05 01:25:00,
2013-05-04 18:30:00,81.5,47.9,29.80,SSE,157,0.0,0.0,31,0.00,,,0.00,WUHU21623XXSP,2013-05-05 01:30:00,
2013-05-04 18:35:00,81.0,48.2,29.80,SSE,157,1.6,1.6,32,0.00,,,0.00,WUHU21623XXSP,2013-05-05 01:35:00,
2013-05-04 18:40:00,80.4,47.0,29.80,North,0,0.0,1.6,31,0.00,,,0.00,WUHU21623XXSP,2013-05-05 01:40:00,
2013-05-04 18:45:00,80.2,47.6,29.80,ENE,67,0.0,6.9,32,0.00,,,0.00,WUHU21623XXSP,2013-05-05 01:45:00,
2013-05-04 18:50:00,79.5,47.0,29.80,NE,45,0.0,6.9,32,0.00,,,0.00,WUHU21623XXSP,2013-05-05 01:50:00,
2013-05-04 18:55:00,79.0,47.3,29.80,ENE,67,0.0,1.6,33,0.00,,,0.00,WUHU21623XXSP,2013-05-05 01:55:00,
2013-05-04 19:00:00,78.6,46.9,29.79,NE,45,0.0,1.6,33,0.00,,,0.00,WUHU21623XXSP,2013-05-05 02:00:00,
2013-05-04 19:05:00,78.1,46.5,29.80,NE,45,0.0,1.6,33,0.00,,,0.00,WUHU21623XXSP,2013-05-05 02:05:00,
2013-05-04 19:10:00,77.7,46.2,29.80,ENE,67,0.0,1.6,33,0.00,,,0.00,WUHU21623XXSP,2013-05-05 02:10:00,
2013-05-04 19:15:00,77.5,46.8,29.80,ENE,67,0.0,1.6,34,0.00,,,0.00,WUHU21623XXSP,2013-05-05 02:15:00,
2013-05-04 19:20:00,76.8,45.4,29.79,NE,45,0.0,0.0,33,0.00,,,0.00,WUHU21623XXSP,2013-05-05 02:20:00,
2013-05-04 19:25:00,76.3,45.0,29.80,ESE,112,1.3,1.3,33,0.00,,,0.00,WUHU21623XXSP,2013-05-05 02:25:00,
2013-05-04 19:30:00,75.9,44.6,29.80,ENE,67,0.0,1.3,33,0.00,,,0.00,WUHU21623XXSP,2013-05-05 02:30:00,
2013-05-04 19:35:00,75.7,44.5,29.79,North,0,0.0,0.0,33,0.00,,,0.00,WUHU21623XXSP,2013-05-05 02:35:00,
2013-05-04 19:40:00,75.4,44.1,29.80,North,0,0.0,0.0,33,0.00,,,0.00,WUHU21623XXSP,2013-05-05 02:40:00,
2013-05-04 19:45:00,75.0,44.6,29.80,NNE,22,0.0,0.0,34,0.00,,,0.00,WUHU21623XXSP,2013-05-05 02:45:00,
2013-05-04 19:50:00,74.3,43.9,29.79,SSW,202,0.0,0.0,34,0.00,,,0.00,WUHU21623XXSP,2013-05-05 02:50:00,
2013-05-04 19:55:00,73.9,44.4,29.79,SSE,157,0.0,0.0,35,0.00,,,0.00,WUHU21623XXSP,2013-05-05 02:55:00,
2013-05-04 20:00:00,73.6,44.0,29.80,ENE,67,0.0,0.0,35,0.00,,,0.00,WUHU21623XXSP,2013-05-05 03:00:00,
2013-05-04 20:05:00,73.2,43.7,29.80,NE,45,0.0,0.0,35,0.00,,,0.00,WUHU21623XXSP,2013-05-05 03:05:00,
2013-05-04 20:10:00,73.0,43.6,29.80,ESE,112,0.0,0.0,35,0.00,,,0.00,WUHU21623XXSP,2013-05-05 03:10:00,
2013-05-04 20:15:00,72.5,43.9,29.80,ESE,112,0.0,0.0,36,0.00,,,0.00,WUHU21623XXSP,2013-05-05 03:15:00,
2013-05-04 20:20:00,72.0,43.4,29.80,SSE,157,0.0,0.0,36,0.00,,,0.00,WUHU21623XXSP,2013-05-05 03:20:00,
2013-05-04 20:25:00,71.6,43.1,29.80,SE,135,0.0,0.0,36,0.00,,,0.00,WUHU21623XXSP,2013-05-05 03:25:00,
2013-05-04 20:30:00,71.2,42.8,29.81,NE,45,0.0,0.0,36,0.00,,,0.00,WUHU21623XXSP,2013-05-05 03:30:00,
2013-05-04 20:35:00,70.7,43.0,29.81,ENE,67,0.0,0.0,37,0.00,,,0.00,WUHU21623XXSP,2013-05-05 03:35:00,
2013-05-04 20:40:00,70.5,42.9,29.81,East,90,0.0,0.0,37,0.00,,,0.00,WUHU21623XXSP,2013-05-05 03:40:00,
2013-05-04 20:45:00,70.3,42.7,29.81,ENE,67,0.0,0.0,37,0.00,,,0.00,WUHU21623XXSP,2013-05-05 03:45:00,
2013-05-04 20:50:00,69.6,42.8,29.81,East,90,0.0,0.0,38,0.00,,,0.00,WUHU21623XXSP,2013-05-05 03:50:00,
2013-05-04 20:55:00,69.4,42.6,29.81,East,90,0.0,0.0,38,0.00,,,0.00,WUHU21623XXSP,2013-05-05 03:55:00,
2013-05-04 21:00:00,69.4,42.6,29.81,NE,45,0.0,0.0,38,0.00,,,0.00,WUHU21623XXSP,2013-05-05 04:00:00,
2013-05-04 21:05:00,69.1,42.3,29.81,NE,45,0.0,0.0,38,0.00,,,0.00,WUHU21623XXSP,2013-05-05 04:05:00,
2013-05-04 21:10:00,68.7,42.0,29.81,ENE,67,0.0,0.0,38,0.00,,,0.00,WUHU21623XXSP,2013-05-05 04:10:00,
2013-05-04 21:15:00,68.5,41.8,29.82,ENE,67,0.0,0.0,38,0.00,,,0.00,WUHU21623XXSP,2013-05-05 04:15:00,
2013-05-04 21:20:00,68.2,42.2,29.81,NNE,22,0.0,0.0,39,0.00,,,0.00,WUHU21623XXSP,2013-05-05 04:20:00,
2013-05-04 21:25:00,67.8,41.9,29.81,NE,45,0.0,0.0,39,0.00,,,0.00,WUHU21623XXSP,2013-05-05 04:25:00,
2013-05-04 21:30:00,67.6,41.7,29.82,NE,45,0.0,0.0,39,0.00,,,0.00,WUHU21623XXSP,2013-05-05 04:30:00,
2013-05-04 21:35:00,67.3,41.4,29.82,NE,45,0.0,0.0,39,0.00,,,0.00,WUHU21623XXSP,2013-05-05 04:35:00,
2013-05-04 21:40:00,67.1,41.3,29.82,NE,45,0.0,0.0,39,0.00,,,0.00,WUHU21623XXSP,2013-05-05 04:40:00,
2013-05-04 21:45:00,66.9,41.1,29.82,NE,45,0.0,0.0,39,0.00,,,0.00,WUHU21623XXSP,2013-05-05 04:45:00,
2013-05-04 21:50:00,66.7,40.9,29.82,ENE,67,0.0,0.0,39,0.00,,,0.00,WUHU21623XXSP,2013-05-05 04:50:00,
2013-05-04 21:55:00,66.7,40.9,29.82,NE,45,0.0,0.0,39,0.00,,,0.00,WUHU21623XXSP,2013-05-05 04:55:00,
2013-05-04 22:00:00,66.6,40.8,29.82,NE,45,0.0,0.0,39,0.00,,,0.00,WUHU21623XXSP,2013-05-05 05:00:00,
2013-05-04 22:05:00,66.6,40.8,29.82,NE,45,0.0,0.0,39,0.00,,,0.00,WUHU21623XXSP,2013-05-05 05:05:00,
2013-05-04 22:10:00,66.4,39.9,29.82,NE,45,0.0,5.8,38,0.00,,,0.00,WUHU21623XXSP,2013-05-05 05:10:00,
2013-05-04 22:15:00,66.0,40.3,29.82,NE,45,0.0,5.8,39,0.00,,,0.00,WUHU21623XXSP,2013-05-05 05:15:00,
2013-05-04 22:20:00,66.0,40.3,29.82,NNE,22,0.0,0.0,39,0.00,,,0.00,WUHU21623XXSP,2013-05-05 05:20:00,
2013-05-04 22:25:00,66.0,40.3,29.81,NE,45,0.0,0.0,39,0.00,,,0.00,WUHU21623XXSP,2013-05-05 05:25:00,
2013-05-04 22:30:00,65.8,40.1,29.82,NE,45,0.0,0.0,39,0.00,,,0.00,WUHU21623XXSP,2013-05-05 05:30:00,
2013-05-04 22:35:00,65.7,40.0,29.82,NE,45,0.0,0.0,39,0.00,,,0.00,WUHU21623XXSP,2013-05-05 05:35:00,
2013-05-04 22:40:00,65.7,40.0,29.81,NNE,22,0.0,0.0,39,0.00,,,0.00,WUHU21623XXSP,2013-05-05 05:40:00,
2013-05-04 22:45:00,65.5,39.8,29.81,ENE,67,0.0,1.6,39,0.00,,,0.00,WUHU21623XXSP,2013-05-05 05:45:00,
2013-05-04 22:50:00,65.7,40.0,29.81,NNE,22,0.0,1.6,39,0.00,,,0.00,WUHU21623XXSP,2013-05-05 05:50:00,
2013-05-04 22:55:00,65.7,40.0,29.81,NNE,22,0.0,0.0,39,0.00,,,0.00,WUHU21623XXSP,2013-05-05 05:55:00,
2013-05-04 23:00:00,65.5,39.8,29.81,NNE,22,0.0,0.0,39,0.00,,,0.00,WUHU21623XXSP,2013-05-05 06:00:00,
2013-05-04 23:05:00,65.3,39.6,29.81,NNE,22,0.0,0.0,39,0.00,,,0.00,WUHU21623XXSP,2013-05-05 06:05:00,
2013-05-04 23:11:00,65.1,39.5,29.82,NE,45,0.0,0.0,39,0.00,,,0.00,WUHU21623XXSP,2013-05-05 06:11:00,
2013-05-04 23:16:00,64.8,39.9,29.82,NE,45,0.0,0.0,40,0.00,,,0.00,WUHU21623XXSP,2013-05-05 06:16:00,
2013-05-04 23:21:00,64.4,39.6,29.82,ENE,67,0.0,0.0,40,0.00,,,0.00,WUHU21623XXSP,2013-05-05 06:21:00,
2013-05-04 23:26:00,64.2,40.0,29.81,ENE,67,0.0,0.0,41,0.00,,,0.00,WUHU21623XXSP,2013-05-05 06:26:00,
2013-05-04 23:31:00,64.0,39.8,29.81,ENE,67,0.0,0.0,41,0.00,,,0.00,WUHU21623XXSP,2013-05-05 06:31:00,
2013-05-04 23:36:00,63.5,39.3,29.81,NW,315,0.0,0.0,41,0.00,,,0.00,WUHU21623XXSP,2013-05-05 06:36:00,
2013-05-04 23:41:00,63.5,39.3,29.81,NW,315,0.0,0.0,41,0.00,,,0.00,WUHU21623XXSP,2013-05-05 06:41:00,
2013-05-04 23:46:00,63.3,39.9,29.81,NW,315,0.0,0.0,42,0.00,,,0.00,WUHU21623XXSP,2013-05-05 06:46:00,
2013-05-04 23:51:00,63.1,40.2,29.82,NNW,337,0.0,0.0,43,0.00,,,0.00,WUHU21623XXSP,2013-05-05 06:51:00,
2013-05-04 23:56:00,63.1,39.6,29.82,NNW,337,0.0,0.0,42,0.00,,,0.00,WUHU21623XXSP,2013-05-05 06:56:00,